x

Isle Of Shoals, Nh (iosn3) Weather Station

5:00 - Fri 29th Apr 2016 All times are EDT. -4 hours from GMT.

  • Wind
    18mph, 20mph gusts
  • Air Temp 44°f
  • Sea Pressure 1019.7mb
  • Isle Of Shoals, Nh
  • Isle Of Shoals, Nh

More Historic Weather Station data

Upgrade to MSW Pro to gain access to the past 30 days of data for over 8000 Wavebouys and Weather Stations around the globe.

Join Pro

Comparision Forecast

View Surf forecast
   
ven. 04/29 5:00 18 20 mph 1019.7mb 44f
4:00 16 18 mph 1019.8mb 44f
3:00 17 20 mph 1020.1mb 43f
2:00 17 18 mph 1020.9mb 44f
1:00 16
mph
1021.5mb 44f
12:00 14 15 mph 1022.1mb 44f
11:00 11
mph
1022.5mb 44f
10:00 10
mph
1022.3mb 44f
9:00 9 10 mph 1022.1mb 44f
8:00 9
mph
1021.9mb 44f
7:00 8 9 mph 1021.7mb 43f
6:00 16 18 mph 1020.9mb 42f
5:00 15 17 mph 1020.4mb 42f
4:00 20 22 mph 1020.1mb 42f
3:00 13 16 mph 1019.7mb 44f
2:00 10 11 mph 1019.6mb 44f
1:00 15 16 mph 1019.4mb 44f
12:00 17 18 mph 1019.1mb 44f
jeu. 04/28 11:00 16 17 mph 1018.9mb 44f
10:00 18
mph
1018.6mb 44f
9:00 16 17 mph 1018.4mb 44f
8:00 16 17 mph 1017.9mb 44f
7:00 20 21 mph 1017.4mb 44f
6:00 18 20 mph 1017.1mb 44f
5:00 17 20 mph 1016mb 43f
4:00 20 21 mph 1015.6mb 43f
3:00 23 24 mph 1016.2mb 43f
2:00 18 20 mph 1016.5mb 43f
1:00 16
mph
1016.6mb 42f
12:00 13 14 mph 1017.1mb 42f
11:00 11 13 mph 1017.2mb 42f
10:00 9 10 mph 1017.3mb 41f
9:00  -  1 mph 1017.5mb 41f
8:00 7 8 mph 1016.9mb 40f
7:00 14 15 mph 1016.2mb 39f
6:00 11
mph
1015.1mb 41f
5:00 15 16 mph 1014.3mb 41f
4:00 9 10 mph 1013.5mb 42f
3:00 10 11 mph 1013mb 43f
2:00 11 13 mph 1012.7mb 44f
1:00 11
mph
1012.2mb 45f
12:00 22 23 mph 1011.3mb 46f
mer. 04/27 11:00 23 25 mph 1010.3mb 48f
10:00 21 26 mph 1008.9mb 48f
9:00 10 13 mph 1008.2mb 49f
8:00 17 20 mph 1007.6mb 48f
7:00 20 22 mph 1007.6mb 47f
6:00 23 25 mph 1008.1mb 47f
5:00 22 24 mph 1008.4mb 45f
4:00 22 24 mph 1008.7mb 45f
3:00 21 22 mph 1009.4mb 45f
2:00 13 16 mph 1010.3mb 46f
1:00 9 10 mph 1010.7mb 49f
12:00 6 7 mph 1010.9mb 47f
11:00 9 10 mph 1011.7mb 46f
10:00 14 15 mph 1011.9mb 44f
9:00 14 15 mph 1012mb 41f
7:00 7 8 mph 1011.9mb 37f
6:00 11 13 mph 1011.5mb 37f
5:00 13 14 mph 1010.8mb 38f
4:00 16 18 mph 1010.5mb 38f
3:00 14 15 mph 1010mb 37f
2:00 13 14 mph 1010.2mb 38f
1:00 13 15 mph 1010.4mb 37f
12:00 11 14 mph 1010.5mb 37f
mar. 04/26 11:00 11 13 mph 1010.5mb 37f
10:00 9
mph
1010.2mb 37f
9:00 7 8 mph 1010.1mb 37f
8:00 8 9 mph 1010mb 36f
7:00 10 13 mph 1009.7mb 36f
6:00 18 22 mph 1009.3mb 36f
5:00 16 20 mph 1008.6mb 35f
4:00 21 22 mph 1007.9mb 35f
3:00 21 24 mph 1008.1mb 35f
2:00 23 25 mph 1008.3mb 35f
1:00 28 29 mph 1008.3mb 36f
12:00 29 32 mph 1007.8mb 36f
11:00 22 24 mph 1009.8mb 39f
10:00 22 24 mph 1009.8mb 40f
9:00 18 21 mph 1010.5mb 39f
8:00 22 25 mph 1011.1mb 38f
7:00 20 23 mph 1011.9mb 38f
6:00 26 29 mph 1011.6mb 40f
5:00 24 28 mph 1012.1mb 42f
4:00 25 30 mph 1012.2mb 44f
3:00 25 29 mph 1012.1mb 45f
2:00 25 30 mph 1011.9mb 46f
1:00 23 25 mph 1012.7mb 48f
12:00 14 15 mph 1013mb 50f
lun. 04/25 11:00 8
mph
1013mb 55f